This is the latest recevied weather packets stored in our database for station/object KB1ZFK. If no packets are shown the sender has not sent any weather packets the latest 10 day(s).
| Time | Temp. | Humidity | Pressure | Rain* | Wind** | Luminosity | Snow |
|---|---|---|---|---|---|---|---|
| 1777671551 | 13.89° C | 36% | 1009 hPa | 0 mm | - | 84 W/m² | - |
| 1777671249 | 13.89° C | 38% | 1009.1 hPa | 0 mm | - | 110 W/m² | - |
| 1777670943 | 14.44° C | 37% | 1009 hPa | 0 mm | - | 136 W/m² | - |
| 1777670641 | 14.44° C | 36% | 1009.1 hPa | 0 mm | - | 79 W/m² | - |
| 1777670338 | 14.44° C | 37% | 1009 hPa | 0 mm | - | 55 W/m² | - |
| 1777670035 | 13.89° C | 35% | 1008.8 hPa | 0 mm | - | 47 W/m² | - |
| 1777669732 | 14.44° C | 35% | 1008.6 hPa | 0 mm | - | 148 W/m² | - |
| 1777669429 | 14.44° C | 35% | 1008.4 hPa | 0 mm | - | 118 W/m² | - |
| 1777669126 | 14.44° C | 34% | 1008.5 hPa | 0 mm | - | 144 W/m² | - |
| 1777668822 | 14.44° C | 34% | 1008.4 hPa | 0 mm | - | 263 W/m² | - |
| 1777668519 | 14.44° C | 34% | 1008.5 hPa | 0 mm | - | 233 W/m² | - |
| 1777668216 | 14.44° C | 33% | 1008.5 hPa | 0 mm | - | 402 W/m² | - |
| 1777667912 | 14.44° C | 34% | 1008.3 hPa | 0 mm | - | 216 W/m² | - |
| 1777667609 | 15° C | 34% | 1008.6 hPa | 0 mm | - | 184 W/m² | - |
| 1777667306 | 15° C | 37% | 1008.7 hPa | 0 mm | - | 242 W/m² | - |
| 1777667003 | 14.44° C | 34% | 1008.5 hPa | 0 mm | - | 126 W/m² | - |
| 1777666694 | 14.44° C | 36% | 1008.5 hPa | 0 mm | - | 211 W/m² | - |
| 1777666391 | 14.44° C | 35% | 1008.5 hPa | 0 mm | - | 115 W/m² | - |
| 1777666088 | 14.44° C | 35% | 1008.5 hPa | 0 mm | - | 101 W/m² | - |
| 1777665784 | 14.44° C | 36% | 1008.6 hPa | 0 mm | - | 203 W/m² | - |
| 1777665483 | 14.44° C | 36% | 1008.5 hPa | 0 mm | - | 262 W/m² | - |
| 1777665178 | 14.44° C | 37% | 1008.6 hPa | 0 mm | - | 323 W/m² | - |
| 1777664874 | 15.56° C | 37% | 1008.5 hPa | 0 mm | - | 206 W/m² | - |
| 1777664570 | 15.56° C | 36% | 1008.7 hPa | 0 mm | - | 550 W/m² | - |
| 1777664267 | 15° C | 35% | 1008.8 hPa | 0 mm | - | 690 W/m² | - |
* Rain latest hour (hover to see other rain measurements)
** Current wind speed in m/s (hover to see current wind gust speed)